COSMOS 2251 DEB, 35668

Orbit data source: Space-Track

COSMOS 2251 DEB, 35668 is space debris in LEO originally from a launch on Wed, 16 Jun 1993 UTC launched from the Plesetsk Missile And Space Complex (PKMTR). The debris from Iridium 33, an American commercial communications satellite, has been tracked extensively since its accidental collision with the defunct Russian satellite Cosmos 2251 in 2009. This event, occurring at high speed in low Earth orbit (LEO), generated thousands of pieces of space debris, significantly increasing the risk of further collisions. The Iridium 33 debris cloud has impacted space traffic management and orbital debris mitigation strategies, making it a subject of ongoing study in space situational awareness.

Loading next visibility...
Identifier
35668, 1993-036APK
Orbit
LEO
Country
Flag of CISCIS
Related business
Manufacturer
Unknown
Mission
Spacecraft
Bus & Motor
Unknown
Mass
Unknown
Launch date (UTC)
1993-06-16 (33 years ago)
Launch vehicle
Unknown
Launch site
Plesetsk Missile And Space Complex (PKMTR)
Object type
Payload
Rocket body
Debris
Shape & HBR
Unknown shape, 0.1 m
Radar Cross Section
Small (<0.1 m²)

Expand to show TLE details & history
Last TLE update: 22 hours ago

TLE from 22 hours ago
0 COSMOS 2251 DEB
1 35668U 93036APK 26177.33357895  .00000757  00000-0  14185-3 0  9996
2 35668  74.0432 204.8863 0083415 260.7490  98.4237 14.64526799905101
Epoch: 2026-06-26T08:00Z
TLE epoch observation values (Epoch: 2026-06-26T08:00:21.221Z)
Latitude
-0°
Longitude
170.33429°
Altitude
690.345 km
Speed
7.506 km/s
True Right ascension
13h 39m 32s
True Declination
0° 00' 00"
Sunlit
Object was in daylight at epoch
Visualization orbit readout
Latitude
Unknown
Longitude
Unknown
Altitude
Unknown
Speed
Unknown
Apparent Right ascension
Unknown
Apparent Declination
Unknown
Sunlit
N/A
Visualization observer readout
Local Sidereal Time
17:10:03
Azimuth
Unknown
Elevation
Unknown
Doppler factor
Unknown
Orbital elements
Apogee altitude
735.03 km
Perigee altitude
617.343 km
Semi-major axis
7,054.324 km
Eccentricity
0.00834
Inclination
74.0432°
RAAN
204.8863°
Arg. of periapsis
260.749°
True anomaly
99.36777°
Mean anomaly
98.4237°
Eccentric anomaly
98.89588°
Mean motion
3.6632 °/min
Orbital period
98.27 mins
BSTAR
0.00014185

Documentation

Showing up to 5 results
|